This demonstration page uses our WeatherBlox Daily Observations layout. Learn more.

Left ArrowRight Arrow

44.89941, -97.11507

Hourly Observations for May 8, 2022

Temp ( °F °C ) Dew Point ( °F °C ) Humidity (%) Winds ( mph kmh ) Pressure ( in mb ) Visibility ( mi km ) Precip ( " mm )
12:10 am 00:10 Cloudy with Heavy Rain 57 13.9 56 13.3 96 96 Calm 29.61 1003 2 3 0.07 1.78
12:22 am 00:22 Cloudy with Heavy Rain 56 13.3 54 12.2 93 93 Calm 29.62 1003 3 5 0.13 3.30
12:53 am 00:53 Cloudy with Rain 56 13.3 55 12.8 97 97 SE 9 15 29.59 1002 3 5 0.22 5.59
1:53 am 01:53 Cloudy with Heavy Rain 56 13.3 54 12.2 93 93 SSE 17 28 29.58 1002 4 6 0.24 6.10
2:53 am 02:53 Cloudy with Light Rain 55 12.8 54 12.2 96 96 SSE 13 20 29.59 1002 8 13 0.14 3.56
3:53 am 03:53 Cloudy with Light Rain 54 12.2 52 11.1 93 93 SSE 15 24 29.55 1001 7 11 0.03 0.76
4:39 am 04:39 Cloudy 54 12.2 52 11.1 93 93 SE 17 28 29.53 1000 10 16 0.01 0.25
4:53 am 04:53 Cloudy 54 12.2 52 11.1 93 93 SE 17 28 29.51 999 10 16 0.01 0.25
5:03 am 05:03 Cloudy 54 12.2 52 11.1 93 93 SSE 21 33 29.54 1000 10 16 0.00 0.00
5:53 am 05:53 Mostly Cloudy 54 12.2 52 11.1 93 93 SE 17 28 29.49 999 10 16 0.00 0.00
6:53 am 06:53 Mostly Cloudy 54 12.2 52 11.1 93 93 SSE 23 37 29.50 999 10 16 0.00 0.00
7:53 am 07:53 Cloudy 54 12.2 52 11.1 93 93 WSW 15 24 29.59 1002 10 16 0.00 0.00
8:05 am 08:05 Cloudy 54 12.2 52 11.1 93 93 SW 15 24 29.59 1002 10 16 0.00 0.00
8:36 am 08:36 Cloudy 55 12.8 53 11.7 93 93 SSW 9 15 29.57 1001 10 16 0.00 0.00
8:53 am 08:53 Cloudy 55 12.8 53 11.7 93 93 SSW 8 13 29.57 1001 10 16 0.00 0.00
9:22 am 09:22 Cloudy 56 13.3 52 11.1 87 87 SW 8 13 29.59 1002 10 16 0.00 0.00
9:53 am 09:53 Cloudy 56 13.3 53 11.7 90 90 SSW 7 11 29.59 1002 10 16 0.00 0.00
10:25 am 10:25 Cloudy 57 13.9 53 11.7 87 87 SSW 6 9 29.58 1002 10 16 0.00 0.00
10:53 am 10:53 Cloudy 57 13.9 53 11.7 87 87 S 6 9 29.58 1002 10 16 0.00 0.00
11:53 am 11:53 Cloudy 59 15 53 11.7 81 81 SSW 13 20 29.59 1002 10 16 0.00 0.00
12:53 pm 12:53 Mostly Cloudy 61 16.1 54 12.2 78 78 SSE 10 17 29.58 1002 10 16 0.00 0.00
1:53 pm 13:53 Cloudy 62 16.7 54 12.2 75 75 SSE 13 20 29.58 1002 10 16 0.00 0.00
2:53 pm 14:53 Cloudy 62 16.7 54 12.2 75 75 SSE 12 19 29.57 1001 10 16 0.00 0.00
3:40 pm 15:40 Partly Cloudy 63 17.2 54 12.2 73 73 SE 13 20 29.53 1000 10 16 0.00 0.00
3:53 pm 15:53 Partly Cloudy 63 17.2 54 12.2 73 73 SE 9 15 29.56 1001 10 16 0.00 0.00
4:53 pm 16:53 Mostly Cloudy 66 18.9 54 12.2 65 65 SE 7 11 29.54 1001 10 16 0.00 0.00
5:03 pm 17:03 Cloudy 66 18.9 54 12.2 65 65 ESE 12 19 29.51 999 10 16 0.00 0.00
5:33 pm 17:33 Partly Cloudy 66 18.9 54 12.2 65 65 SE 8 13 29.51 999 10 16 0.00 0.00
5:53 pm 17:53 Sunny 66 18.9 55 12.8 68 68 SE 12 19 29.55 1001 10 16 0.00 0.00
6:53 pm 18:53 Sunny 66 18.9 55 12.8 68 68 SE 14 22 29.54 1001 10 16 0.00 0.00
7:53 pm 19:53 Sunny 63 17.2 54 12.2 73 73 SE 10 17 29.55 1001 10 16 0.00 0.00
8:53 pm 20:53 Clear 60 15.6 54 12.2 80 80 SE 10 17 29.56 1001 10 16 0.00 0.00
9:53 pm 21:53 Partly Cloudy 57 13.9 54 12.2 90 90 SE 14 22 29.58 1002 10 16 0.00 0.00
10:05 pm 22:05 Mostly Cloudy 57 13.9 54 12.2 90 90 SE 14 22 29.57 1001 10 16 0.00 0.00
10:40 pm 22:40 Mostly Cloudy 56 13.3 53 11.7 90 90 SE 13 20 29.58 1002 10 16 0.00 0.00
10:53 pm 22:53 Mostly Clear 55 12.8 53 11.7 93 93 SE 15 24 29.58 1002 10 16 0.00 0.00
11:13 pm 23:13 Mostly Cloudy 55 12.8 52 11.1 90 90 SSE 14 22 29.59 1002 10 16 0.00 0.00
11:36 pm 23:36 Cloudy 54 12.2 52 11.1 93 93 SE 9 15 29.59 1002 10 16 0.00 0.00
11:46 pm 23:46 Cloudy 54 12.2 51 10.6 90 90 SE 12 19 29.60 1002 10 16 0.00 0.00
11:53 pm 23:53 Cloudy 54 12.2 51 10.6 90 90 SE 8 13 29.59 1002 10 16 0.00 0.00

Powered by AerisWeather